Location: Unspecified
(41.1637°N, 24.2901°E)
Time: 06:28:37
(UTC+01:00)

ISS - Pass Details

Date: 09 December 2019
Orbit: 411 x 421 km, 51.6° (Epoch: 15 December)

Event Time Altitude Azimuth Distance (km) Brightness Sun altitude
Rises 17:38:51 0° 302° (WNW) 2,359 0.7 -19.1°
Reaches altitude 10° 17:40:58 10° 298° (WNW) 1,495 -0.3 -19.5°
Maximum altitude 17:44:15 53° 221° (SW) 517 -3.1 -20.1°
Enters shadow 17:45:10 38° 167° (SSE) 650 -2.9 -20.2°
